Total_Precipitation_Accumulation
0.09 0.25 0.63 0.96 1.73 1.88 1.27 0.70 0.55 0.47 0.45 0.50 0.52 0.51 0.55 0.71 1.02 1.80 1.69 1.27 1.11 1.34 1.79 2.45 2.63 2.41 2.29 2.26 2.14 2.19 2.13 2.10 2.29 2.41 2.39 2.21 2.15 2.41 2.49 2.45 2.44 2.54 2.46 2.17 2.04 1.79 1.58 1.60 1.65
0.20 0.44 0.82 1.28 1.86 1.52 1.09 0.55 0.41 0.39 0.35 0.46 0.50 0.42 0.40 0.46 0.44 0.70 1.09 1.22 1.09 1.17 1.42 1.78 2.09 2.07 2.02 1.99 2.02 2.03 1.96 1.98 2.11 2.16 2.30 2.29 2.20 2.41 2.62 2.50 2.45 2.59 2.39 2.16 1.94 1.74 1.52 1.44 1.49
0.38 0.62 1.00 1.52 1.18 0.80 0.69 0.40 0.35 0.40 0.47 0.64 0.75 0.51 0.46 0.67 0.58 0.71 0.87 0.90 0.97 1.09 1.21 1.54 1.83 1.84 1.84 1.86 2.03 2.04 1.93 1.90 2.00 2.12 2.25 2.38 2.45 2.48 2.61 2.47 2.49 2.60 2.56 2.30 1.98 1.77 1.55 1.48 1.45
0.47 0.75 1.05 1.09 0.52 0.33 0.36 0.28 0.33 0.42 0.70 0.82 0.86 0.73 0.66 0.70 0.61 0.66 0.68 0.77 0.94 1.10 1.26 1.51 1.72 1.67 1.75 1.79 2.00 2.05 2.04 1.97 1.99 2.14 2.16 2.30 2.54 2.70 2.76 2.58 2.55 2.58 2.49 2.20 1.96 1.73 1.54 1.44 1.40
0.47 0.86 1.20 0.75 0.25 0.19 0.19 0.16 0.23 0.36 0.61 0.83 0.84 0.95 1.04 0.98 0.75 0.65 0.67 0.82 0.95 1.10 1.34 1.43 1.66 1.70 1.84 2.02 2.17 2.14 2.08 1.94 1.95 1.99 1.92 2.09 2.53 2.79 2.86 2.79 2.71 2.62 2.47 2.14 1.90 1.71 1.53 1.44 1.44
0.62 0.99 0.87 0.48 0.24 0.16 0.15 0.15 0.24 0.45 0.64 0.80 0.97 1.13 1.19 1.10 0.85 0.76 0.76 0.92 1.02 1.06 1.33 1.44 1.68 1.78 1.87 2.06 2.36 2.41 2.14 2.00 1.94 2.00 1.93 2.02 2.28 2.64 2.78 2.89 2.91 2.78 2.55 2.14 1.88 1.67 1.50 1.44 1.49
0.50 0.65 0.49 0.32 0.22 0.16 0.15 0.20 0.30 0.45 0.55 0.84 1.12 1.24 1.21 1.26 1.05 0.87 1.00 1.07 1.37 1.16 1.25 1.43 1.65 1.81 1.91 2.03 2.24 2.28 2.25 2.14 2.11 2.18 2.05 2.08 2.31 2.53 2.71 2.98 2.91 2.75 2.57 2.23 1.93 1.70 1.49 1.45 1.50
0.30 0.39 0.30 0.22 0.14 0.12 0.14 0.20 0.30 0.41 0.69 0.95 1.01 1.19 1.37 1.21 1.16 1.15 1.28 1.32 1.50 1.43 1.29 1.35 1.50 1.81 1.89 1.93 2.14 2.34 2.31 2.23 2.25 2.30 2.26 2.47 2.63 2.66 2.71 2.98 3.03 2.82 2.59 2.26 2.13 1.88 1.63 1.60 1.54
0.29 0.39 0.29 0.18 0.09 0.10 0.15 0.24 0.31 0.37 0.57 0.77 0.92 0.95 0.85 0.94 1.16 1.26 1.42 1.60 1.67 1.65 1.59 1.61 1.55 1.61 1.76 1.81 2.03 2.54 2.57 2.46 2.47 2.58 2.79 3.03 3.25 3.22 3.28 3.23 3.31 3.19 2.88 2.71 2.56 2.32 1.98 1.81 1.63
0.24 0.27 0.16 0.09 0.05 0.07 0.12 0.21 0.34 0.44 0.74 1.13 1.21 1.30 1.09 1.17 1.32 1.34 1.40 1.50 1.67 1.78 1.81 1.99 1.80 1.67 1.74 1.75 2.40 3.14 2.96 2.81 2.88 3.00 3.15 3.50 3.65 3.93 3.48 3.79 3.98 3.98 3.81 3.60 3.40 3.23 2.66 2.02 1.66
0.08 0.09 0.06 0.05 0.04 0.04 0.06 0.13 0.17 0.38 0.84 1.34 1.45 1.51 1.40 1.38 1.44 1.49 1.58 1.72 1.88 2.09 1.94 1.89 2.02 2.09 2.10 2.19 2.44 2.80 3.12 3.22 3.26 3.23 3.25 3.53 3.48 3.64 3.66 4.10 4.83 4.84 4.21 3.73 3.82 3.69 2.94 2.54 2.58
0.05 0.04 0.04 0.04 0.03 0.04 0.06 0.13 0.23 0.40 0.90 1.22 1.16 1.08 1.19 1.42 1.54 1.68 2.05 2.28 2.49 2.62 2.61 2.65 2.62 2.64 2.67 2.50 2.39 2.48 2.68 2.77 2.82 2.91 2.96 3.15 3.52 3.68 3.84 4.17 4.22 4.26 3.98 4.09 3.92 3.81 3.37 3.08 2.84
0.04 0.03 0.04 0.04 0.04 0.05 0.09 0.18 0.31 0.46 0.79 0.79 0.72 0.82 1.29 1.54 1.71 2.03 2.27 2.50 2.74 3.10 3.38 3.94 3.91 3.43 3.16 2.90 2.63 2.35 2.55 2.41 2.23 2.40 2.71 2.83 3.05 3.40 3.59 3.47 3.52 3.24 3.36 3.65 3.73 3.35 3.41 3.29 3.24
0.03 0.04 0.05 0.07 0.06 0.07 0.12 0.17 0.42 0.54 0.65 0.75 0.76 1.08 1.56 2.05 2.21 2.47 2.79 3.22 3.51 3.94 3.99 4.21 4.80 4.21 3.59 3.08 2.79 2.58 2.43 2.50 2.35 2.46 2.42 2.65 2.85 2.99 3.07 3.00 3.12 2.97 3.01 3.14 3.14 3.10 3.38 3.41 3.28
0.06 0.08 0.15 0.15 0.11 0.13 0.17 0.37 0.55 0.67 0.68 0.92 1.03 1.28 1.83 2.49 2.51 2.82 3.14 3.63 4.04 4.48 4.64 4.76 5.08 4.82 4.40 3.84 3.24 2.76 2.58 2.43 2.46 2.58 2.38 2.45 2.62 2.70 2.75 2.82 2.80 2.81 2.67 2.67 2.65 2.76 3.00 3.01 2.90
0.07 0.16 0.32 0.25 0.16 0.16 0.25 0.74 0.86 0.74 0.71 1.01 1.25 1.49 1.97 2.65 2.76 3.09 3.57 4.07 4.72 5.15 5.42 5.46 5.21 5.28 5.00 4.41 3.83 3.39 3.14 2.90 2.70 2.52 2.38 2.20 2.28 2.33 2.47 2.43 2.40 2.40 2.30 2.27 2.45 2.53 2.75 2.93 2.96
0.12 0.18 0.30 0.30 0.21 0.19 0.28 0.77 0.80 0.54 0.70 0.97 1.31 1.63 1.95 2.31 2.81 3.42 3.93 4.47 5.36 6.31 6.77 6.55 5.90 5.55 5.16 4.70 4.28 4.13 3.90 3.54 3.14 2.88 2.63 2.45 2.25 2.14 2.23 2.32 2.40 2.08 2.11 2.19 2.05 2.35 2.55 2.84 2.91
0.10 0.14 0.24 0.33 0.25 0.29 0.40 0.51 0.64 0.67 0.85 1.05 1.27 1.46 1.80 2.09 2.49 3.22 3.81 4.49 5.43 6.61 7.34 7.25 6.59 5.80 5.19 4.91 4.61 4.51 4.20 3.77 3.31 3.09 2.91 2.59 2.44 2.19 2.22 2.10 2.00 1.79 1.98 2.30 2.42 2.80 2.75 2.67 2.66
0.07 0.12 0.20 0.29 0.24 0.34 0.44 0.54 0.68 0.84 1.07 1.11 1.19 1.29 1.55 1.87 2.27 3.00 3.64 4.20 4.88 5.63 6.20 6.11 5.50 5.05 4.59 4.17 3.70 3.67 3.53 3.31 3.11 2.87 2.64 2.60 2.48 2.30 2.36 2.15 2.21 1.92 1.97 2.08 2.14 2.42 2.56 2.48 2.47
0.07 0.11 0.18 0.23 0.20 0.21 0.38 0.66 0.81 0.87 1.04 1.00 1.00 1.06 1.26 1.64 2.26 3.02 3.60 3.82 3.86 4.13 4.38 3.88 3.69 3.72 3.44 3.28 3.28 3.22 3.10 2.82 2.67 2.65 2.77 2.43 2.38 2.29 2.14 2.31 2.08 1.98 2.16 2.16 2.23 2.46 2.56 2.47 2.53
0.09 0.12 0.15 0.22 0.22 0.28 0.44 0.85 1.06 0.96 0.98 0.84 0.82 1.04 1.51 1.94 2.36 2.87 3.04 3.05 2.96 2.93 2.92 2.70 2.65 2.98 3.01 3.09 3.15 3.16 3.14 2.98 2.78 2.58 2.68 2.35 2.16 2.16 2.22 2.16 2.18 2.23 1.93 2.16 2.32 2.34 2.50 2.56 2.49
0.08 0.08 0.06 0.09 0.18 0.42 0.59 1.06 1.30 1.20 1.13 0.86 0.90 1.30 1.80 2.11 2.36 2.34 1.92 1.77 1.92 2.03 2.15 2.41 2.50 2.66 2.63 2.79 2.76 2.68 2.46 2.33 2.25 2.23 2.37 2.45 2.22 2.09 2.02 2.09 2.34 2.41 2.11 2.31 1.90 2.03 2.33 2.51 2.42
0.06 0.05 0.04 0.08 0.19 0.46 0.75 1.21 1.48 1.36 1.14 0.89 0.85 0.92 1.31 1.46 1.42 1.28 1.14 1.16 1.39 1.69 1.96 2.31 2.42 2.47 2.40 2.39 2.53 2.72 2.62 2.62 2.49 2.39 2.63 2.67 2.66 2.36 2.01 2.03 2.27 2.43 2.35 2.39 2.20 2.41 2.21 2.12 2.11
0.05 0.07 0.14 0.23 0.41 0.89 0.98 1.10 1.41 1.29 1.06 0.93 0.80 0.71 0.91 0.96 0.81 0.85 0.95 1.17 1.41 1.59 1.73 1.98 2.12 2.31 2.33 2.38 2.51 2.55 2.60 2.75 2.70 2.62 2.50 2.41 2.44 2.36 2.20 2.17 2.43 2.43 2.39 2.47 2.39 2.38 2.21 2.16 2.15
0.05 0.07 0.29 0.64 0.96 1.11 0.84 0.98 1.33 0.99 0.79 0.67 0.56 0.50 0.52 0.62 0.70 0.86 0.98 1.18 1.30 1.39 1.44 1.62 1.68 1.87 2.04 2.15 2.24 2.32 2.46 2.58 2.53 2.60 2.54 2.41 2.19 2.10 2.21 2.31 2.52 2.43 2.39 2.34 2.42 2.39 2.35 2.36 2.36
0.05 0.05 0.13 0.26 0.39 0.61 0.79 1.20 1.31 0.91 0.61 0.47 0.44 0.44 0.44 0.52 0.63 0.71 0.84 0.93 1.02 1.21 1.46 1.64 1.58 1.56 1.60 1.64 1.81 1.99 2.06 2.19 2.23 2.52 2.42 2.34 2.21 2.13 2.22 2.31 2.20 2.18 2.23 2.11 2.38 2.25 2.21 2.31 2.33
0.05 0.04 0.05 0.08 0.12 0.38 0.84 1.14 1.10 0.76 0.59 0.54 0.53 0.54 0.54 0.56 0.68 0.68 0.70 0.86 0.93 0.92 1.05 1.27 1.36 1.38 1.37 1.40 1.53 1.61 1.64 1.79 2.02 2.09 1.95 1.82 1.92 2.05 2.15 2.14 2.17 2.19 2.18 2.24 2.43 2.32 2.31 2.46 2.30
0.05 0.05 0.05 0.07 0.13 0.29 0.67 1.19 1.46 1.16 0.83 0.65 0.70 0.63 0.57 0.53 0.59 0.71 0.76 0.80 0.83 0.82 0.99 1.14 1.26 1.34 1.35 1.33 1.36 1.29 1.44 1.55 1.74 1.83 1.83 1.74 1.70 1.89 2.04 2.11 2.19 2.22 2.13 2.18 2.35 2.22 2.35 2.44 2.39
0.06 0.06 0.07 0.09 0.10 0.19 0.50 0.82 0.89 1.00 0.85 0.63 0.66 0.62 0.57 0.51 0.52 0.65 0.69 0.75 0.73 0.72 0.84 1.01 1.21 1.29 1.20 1.23 1.26 1.34 1.42 1.59 1.66 1.64 1.69 1.72 1.74 1.89 2.00 2.08 2.15 2.15 2.15 2.26 2.35 2.22 2.38 2.40 2.50
0.08 0.09 0.10 0.11 0.13 0.14 0.26 0.45 0.51 0.58 0.69 0.89 0.85 0.70 0.68 0.64 0.56 0.62 0.67 0.71 0.67 0.67 0.75 0.86 1.05 1.20 1.23 1.22 1.29 1.39 1.46 1.55 1.62 1.55 1.66 1.84 1.89 1.95 2.04 2.16 2.26 2.16 2.22 2.34 2.30 2.27 2.36 2.42 2.41